This demonstration page uses our WeatherBlox Daily Observations layout. Learn more.

36.19886, -115.1175

Hourly Observations for January 6, 2020

Temp ( °F °C ) Dew Point ( °F °C ) Humidity (%) Winds ( mph kmh ) Pressure ( in mb ) Visibility ( mi km ) Precip ( " mm )
12:53 am 00:53 Clear 48 8.9 20 -6.7 33 33 W 6 9 30.45 1031 10 16.0934 0 0
1:53 am 01:53 Clear 46 7.8 21 -6.1 37 37 NNW 7 11 30.48 1032 10 16.0934 0 0
2:53 am 02:53 Clear 47 8.3 20 -6.7 34 34 NW 13 20 30.48 1032 10 16.0934 0 0
3:53 am 03:53 Clear 46 7.8 20 -6.7 35 35 NNW 9 15 30.48 1032 10 16.0934 0 0
4:53 am 04:53 Clear 45 7.2 20 -6.7 37 37 NNW 13 20 30.49 1033 10 16.0934 0 0
5:53 am 05:53 Clear 44 6.7 20 -6.7 38 38 NNW 12 19 30.51 1033 10 16.0934 0 0
6:53 am 06:53 Sunny 44 6.7 20 -6.7 38 38 NW 10 17 30.53 1034 10 16.0934 0 0
7:53 am 07:53 Sunny 46 7.8 20 -6.7 35 35 NW 12 19 30.55 1035 10 16.0934 0 0
8:53 am 08:53 Sunny 50 10 20 -6.7 30 30 NNW 10 17 30.57 1035 10 16.0934 0 0
9:53 am 09:53 Sunny 54 12.2 19 -7.2 25 25 N 10 17 30.56 1035 10 16.0934 0 0
10:53 am 10:53 Sunny 55 12.8 21 -6.1 26 26 NE 6 9 30.54 1034 10 16.0934 0 0
11:53 am 11:53 Sunny 56 13.3 18 -7.8 22 22 Calm 30.5 1033 10 16.0934 0 0
12:53 pm 12:53 Sunny 58 14.4 16 -8.9 19 19 Calm 30.48 1032 10 16.0934 0 0
1:53 pm 13:53 Sunny 59 15 18 -7.8 20 20 ESE 8 13 30.47 1032 10 16.0934 0 0
2:53 pm 14:53 Sunny 59 15 18 -7.8 20 20 SE 3 6 30.46 1031 10 16.0934 0 0
3:53 pm 15:53 Sunny 59 15 19 -7.2 21 21 S 3 6 30.45 1031 10 16.0934 0 0
4:53 pm 16:53 Clear 56 13.3 20 -6.7 24 24 Calm 30.46 1031 10 16.0934 0 0
5:53 pm 17:53 Clear 54 12.2 19 -7.2 25 25 Calm 30.46 1032 10 16.0934 0 0
6:53 pm 18:53 Clear 50 10 23 -5 35 35 WNW 6 9 30.48 1032 10 16.0934 0 0
7:53 pm 19:53 Clear 47 8.3 25 -3.9 42 42 WNW 6 9 30.48 1032 10 16.0934 0 0
8:53 pm 20:53 Clear 45 7.2 25 -3.9 46 46 WNW 3 6 30.48 1032 10 16.0934 0 0
9:53 pm 21:53 Clear 45 7.2 24 -4.4 44 44 Calm 30.48 1032 10 16.0934 0 0
10:53 pm 22:53 Clear 44 6.7 23 -5 43 43 WNW 6 9 30.46 1032 10 16.0934 0 0
11:53 pm 23:53 Clear 45 7.2 20 -6.7 37 37 NW 9 15 30.44 1031 10 16.0934 0 0

Powered by AerisWeather